Location: Lane
(33.5226°N, 79.8788°W)
Time: 18:54:36
(UTC+00:00)

Courier 1B Rocket - Pass Details

Date: 10 October 2022
Orbit: 920 x 1202 km, 28.3° (Epoch: 01 December)

Event Time Altitude Azimuth Distance (km) Brightness Sun altitude
Rises 21:16:20 0° 246° (WSW) 4,044 9.9 18.4°
Reaches altitude 10° 21:19:19 10° 241° (WSW) 3,054 9.9 17.9°
Maximum altitude 21:26:31 49° 169° (SSE) 1,402 6.2 16.5°
Drops below altitude 10° 21:33:15 10° 97° (E) 2,866 7.0 15.1°
Sets 21:35:58 0° 91° (E) 3,777 7.5 14.6°
